Regional Weather Roundup
Issued by NWS New Orleans/Baton Rouge, LA

Home | Current Version | Previous Version | Graphics & Text | Print | Product List | Glossary On
Versions: 1 2 3 4 5 6 7 8 9 10 11 12 13 14 15 16 17 18 19 20 21 22 23 24 25 26 27 28 29 30 31 32 33 34 35 36 37 38 39 40 41 42 43 44 45 46 47 48 49 50
075
ASUS44 KLIX 311701
RWRLIX
NEW ORLEANS REGIONAL WEATHER ROUNDUP
NATIONAL WEATHER SERVICE NEW ORLEANS LA
1200 PM CDT FRI OCT 31 2014

NOTE: "FAIR" INDICATES FEW OR NO CLOUDS BELOW 12,000 FEET WITH NO
      SIGNIFICANT WEATHER AND/OR OBSTRUCTIONS TO VISIBILITY.
      SKY/WX - SKY CONDITION AND SIGNIFICANT WEATHER.
      TMP - AIR TEMPERATURE.     DP    - DEWPOINT TEMPERATURE.
      RH  - RELATIVE HUMIDITY.   PRES  - PRESSURE.
      HI  - HEAT INDEX.          WCI   - WIND CHILL INDEX.

*  THESE STATIONS ARE NOT NWS OR FAA STATIONS AND ARE NOT UNDER
   NWS QUALITY CONTROL.

LAZ038-040-048-061>063-065>067-069-311800-
SOUTHEAST LOUISIANA

CITY           SKY/WX    TMP DP  RH WIND       PRES   REMARKS
N.O. AUDUBON   NOT AVBL
N.O. INTL ARPT SUNNY     73  48  41 NW13      30.05F
N.O. LAKEFRONT SUNNY     71  53  52 NW14      30.05F
N.O. DOWNTOWN*   N/A     73  46  38 NW7       30.05F
SLIDELL        SUNNY     74  48  39 VRB7      30.02F
BATON ROUGE    SUNNY     71  44  37 NW10G20   30.08F
BOOTHVILLE     SUNNY     71  49  45 NW12      30.06S
BELLE CHASSE   SUNNY     74  45  35 NW9       30.04F
BOGALUSA*        N/A     74  47  38 N12G17    30.05S
NEW ROADS*       N/A     70  48  45 NW13      30.11R
GONZALES*        N/A     72  45  38 NW12G18   30.07F
HAMMOND*       NOT AVBL
HOUMA*         SUNNY     73  48  40 NW9       30.07F
PORT FOURCHON* SUNNY     72  50  46 NW12      30.10F

$$

MSZ070-080>082-311800-
SOUTHERN MISSISSIPPI

CITY           SKY/WX    TMP DP  RH WIND       PRES   REMARKS
MCCOMB         SUNNY     69  45  41 NW18G26   30.07S
GULFPORT       SUNNY     72  46  39 W6        30.00F
BILOXI         SUNNY     74  47  37 W8        30.01F
PASCAGOULA     SUNNY     72  45  37 NW7       30.00F
STENNIS ARPT*  SUNNY     72  43  35 NW7       30.03F

$$

COASTAL OBSERVATIONS
LAKE AND NEARSHORE STATIONS

STATION/POSITION TIME  TEMP    WIND        PRES    WAVE
                       AIR SEA DIR/SP/G            HT/PER
                 (UTC) (F)     (DEG/KT/KT) (MB)    (FT/S)
PASCAGOULA       1600   67     230/  7/  9 1016.0
WAVELAND YACHT   1600   68     300/  9/ 11 1016.0
GRAND ISLE       1600   70 73  340/  9/ 12 1018.7
SOUTHWEST PASS   1600   70 77              1018.1
NEW CANAL        1600   69 69  290/  5/  9 1018.1
SHELL BEACH      1600   68 67  300/ 11/ 13 1017.2

OFFSHORE STATIONS

STATION/POSITION TIME  TEMP    WIND        PRES    WAVE
                       AIR SEA DIR/SP/G            HT/PER
                 (UTC) (F)     (DEG/KT/KT) (MB)    (FT/S)
64 S DAUPHIN ISL 1646   69 78  330/ 12/ 16 1017.3    3/ 5

$$




USA.gov is the U.S. government's official web portal to all federal, state and local government web resources and services.